Stations météo

réclame
Mon MeteoGroup
Brodersby-Schönhagen, Allemagne (10042): Température de l'air & dewpoint: 16.02.2018 21:00:00 - 22.02.2018 21:00:00 (CET)Brodersby-Schönhagen, Allemagne (10042): Température de l'air 5cm & Température de l'air -5cm: 16.02.2018 21:00:00 - 22.02.2018 21:00:00 (CET)Brodersby-Schönhagen, Allemagne (10042): Température de l'air -20cm & Température de l'air -100cm: 16.02.2018 21:00:00 - 22.02.2018 21:00:00 (CET)Brodersby-Schönhagen, Allemagne (10042): Vitesse du vent & gusts: 16.02.2018 21:00:00 - 22.02.2018 21:00:00 (CET)Brodersby-Schönhagen, Allemagne (10042): Direction du vent: 16.02.2018 21:00:00 - 22.02.2018 21:00:00 (CET)Brodersby-Schönhagen, Allemagne (10042): reduced air pressure: 16.02.2018 21:00:00 - 22.02.2018 21:00:00 (CET)Brodersby-Schönhagen, Allemagne (10042): visibility: 16.02.2018 21:00:00 - 22.02.2018 21:00:00 (CET)Brodersby-Schönhagen, Allemagne (10042): Ensoleillement: 16.02.2018 21:00:00 - 22.02.2018 21:00:00 (CET)Brodersby-Schönhagen, Allemagne (10042): Quantités de précipitations: 16.02.2018 21:00:00 - 22.02.2018 21:00:00 (CET)
Date & Time tt [°C] td [°C] tt 5cm [°C] tt -5cm [°C] tt -20cm [°C] tt -100cm [°C] ff [km/h] ff [knt] fx [km/h] fx [knt] dd ppp [hPa] vv [km] sd [min] rr [mm]
22.02.2018 21:00:00 0,8 -3,1 -0,6 0,6 2,0 4,1 21 11 27 15 ENE 1027,8 45 0 0,0
22.02.2018 20:00:00 0,8 -2,4 -0,5 0,8 2,2 4,1 22 12 30 16 ENE 1027,9 30 0 0,0
22.02.2018 19:00:00 1,0 -2,9 -0,2 1,0 2,4 4,1 24 13 30 16 ENE 1027,8 34 0 0,0
22.02.2018 18:00:00 1,1 -3,4 -0,2 2,3 2,4 4,1 20 11 24 13 ENE 1027,6 70 5 0,0
22.02.2018 17:00:00 1,6 -0,6 1,7 3,2 2,3 4,1 11 6 20 11 E 1027,6 13 38 0,0
22.02.2018 16:00:00 2,0 -0,8 3,1 3,7 2,1 4,1 16 9 21 11 E 1027,5 15 36 0,0
22.02.2018 15:00:00 2,2 -0,3 4,2 3,6 1,8 4,1 9 5 11 6 E 1027,7 7 39 0,0
22.02.2018 14:00:00 1,6 -0,4 2,2 2,4 1,6 4,1 6 3 11 6 SE 1028,0 5 0 0,0
22.02.2018 13:00:00 1,6 -0,1 1,7 2,0 1,4 4,1 8 4 14 8 E 1028,2 4,6 0 0,0
22.02.2018 12:00:00 1,7 0,0 1,9 1,4 1,3 4,1 10 5 14 8 ENE 1028,0 4,9 0 0,0
22.02.2018 11:00:00 1,2 -0,2 1,2 0,9 1,3 4,1 3 2 10 5 W 1027,8 3,8 0 0,0
22.02.2018 10:00:00 0,5 -0,8 0,5 0,4 1,3 4,1 7 4 13 7 WSW 1027,7 3,8 0 0,0
22.02.2018 09:00:00 0,2 -1,1 0,0 0,4 1,3 4,1 10 5 13 7 WSW 1027,4 3,9 0 0,0
22.02.2018 08:00:00 -0,1 -0,9 -0,3 0,4 1,3 4,1 8 5 11 6 SSW 1027,3 3,4 0 0,2
22.02.2018 07:00:00 -0,2 -1,0 -0,5 0,4 1,3 4,1 5 3 30 16 S 1027,2 0,9 0 0,3
22.02.2018 06:00:00 0,3 -1,5 0,0 0,4 1,4 4,1 13 7 18 10 WSW 1027,0 4,3 0 0,2
22.02.2018 05:00:00 0,3 -2,0 0,0 0,4 1,4 4,1 14 7 19 11 WSW 1027,0 3,3 0 0,1
22.02.2018 04:00:00 0,1 -1,4 -0,3 0,4 1,4 4,1 7 4 12 6 WSW 1027,6 3,1 0 0,0
22.02.2018 03:00:00 0,3 -1,4 -0,2 0,5 1,5 4,1 7 4 10 5 SW 1027,6 6 0 0,0
22.02.2018 02:00:00 0,4 -1,5 0,0 0,5 1,5 4,1 6 4 12 6 WSW 1027,7 6 0 0,0
22.02.2018 01:00:00 0,5 -1,7 0,0 0,5 1,6 4,1 8 5 11 6 WNW 1028,1 6 0 0,0
22.02.2018 00:00:00 0,4 -1,6 -0,2 0,5 1,7 4,1 6 3 10 6 WNW 1028,3 4,6 0 0,0
21.02.2018 23:00:00 0,4 -1,5 -0,1 0,6 1,8 4,1 10 5 11 6 W 1028,3 6 0 0,0
21.02.2018 22:00:00 0,2 -1,8 -0,3 0,6 1,9 4,1 9 5 11 6 W 1028,3 7 0 0,0
21.02.2018 21:00:00 -0,2 -1,8 -1,2 0,7 2,0 4,1 8 4 9 5 WSW 1028,1 7 0 0,0
21.02.2018 20:00:00 -0,5 -2,0 -1,8 0,8 2,2 4,1 6 4 8 4 SW 1028,0 8 0 0,0
21.02.2018 19:00:00 -0,6 -1,5 -2,8 1,2 2,4 4,1 5 3 7 4 SSW 1027,7 6 0 0,0
21.02.2018 18:00:00 0,9 -1,3 -2,3 2,4 2,4 4,1 5 3 5 3 SSE 1027,5 11 24 0,0
21.02.2018 17:00:00 2,1 -2,8 2,2 3,8 2,2 4,1 0 0 5 3 N 1027,3 17 60 0,0
21.02.2018 16:00:00 2,2 -2,5 3,7 4,2 1,8 4,1 5 3 9 5 E 1027,4 17 59 0,0
21.02.2018 15:00:00 2,6 -1,6 4,5 3,5 1,5 4,1 5 3 11 6 ENE 1027,8 13 60 0,0
21.02.2018 14:00:00 2,4 -0,6 3,7 1,1 1,3 4,1 8 4 11 6 ENE 1028,3 13 18 0,0
21.02.2018 13:00:00 1,8 -1,2 1,4 0,3 1,4 4,1 10 5 14 8 NE 1028,6 15 0 0,0
21.02.2018 12:00:00 1,2 -0,4 0,7 0,3 1,4 4,1 8 5 14 8 NE 1028,5 9 0 0,5
21.02.2018 11:00:00 1,4 0,2 1,0 0,3 1,5 4,1 9 5 12 7 N 1028,4 5 0 0,0
21.02.2018 10:00:00 1,5 0,4 1,0 0,3 1,5 4,1 6 4 9 5 N 1028,1 7 0 0,0
21.02.2018 09:00:00 0,4 -0,3 0,2 0,3 1,5 4,1 5 3 6 3 NNW 1027,7 4,8 0 0,0
21.02.2018 08:00:00 -0,1 -0,8 -0,8 0,3 1,6 4,1 5 3 7 4 NW 1027,4 5 0 0,0
21.02.2018 07:00:00 -0,7 -1,5 -1,3 0,3 1,7 4,1 6 3 8 4 NNW 1027,4 5 0 0,0
21.02.2018 06:00:00 -0,6 -1,7 -1,6 0,4 1,7 4,1 4 2 10 6 NNW 1027,3 7 0 0,0
21.02.2018 05:00:00 0,9 -0,8 -0,8 0,4 1,8 4,1 10 6 16 8 NE 1027,5 8 0 0,0
21.02.2018 04:00:00 1,5 -2,6 -0,4 0,4 1,9 4,1 14 8 19 10 ENE 1027,2 21 0 0,0
21.02.2018 03:00:00 1,5 -2,1 0,0 0,5 2,0 4,1 15 8 17 9 NE 1027,4 20 0 0,0
21.02.2018 02:00:00 1,4 -2,1 -0,5 0,5 2,1 4,0 14 8 23 13 ENE 1027,3 20 0 0,0
21.02.2018 01:00:00 1,7 -2,8 0,1 0,6 2,2 4,0 21 11 25 13 E 1027,0 29 0 0,0
21.02.2018 00:00:00 1,7 -2,7 0,1 0,6 2,3 4,0 22 12 29 16 E 1026,9 26 0 0,0
20.02.2018 23:00:00 1,7 -2,6 0,2 0,7 2,5 4,0 25 13 34 18 E 1026,5 19 0 0,0
20.02.2018 22:00:00 1,9 -3,0 0,5 0,6 2,8 4,0 29 16 33 18 E 1025,9 18 0 0,0
20.02.2018 21:00:00 1,8 -2,8 0,2 1,2 3,0 4,0 26 14 34 19 E 1025,5 19 0 0,0
20.02.2018 20:00:00 2,4 -1,8 1,7 1,9 3,2 4,0 25 13 31 17 E 1025,4 13 0 0,0
20.02.2018 19:00:00 2,5 -1,5 1,8 2,1 3,5 4,0 26 14 32 17 E 1024,7 11 0 0,0
20.02.2018 18:00:00 2,3 -1,9 1,1 2,8 3,7 4,0 25 14 32 17 E 1024,1 12 20 0,0
20.02.2018 17:00:00 2,5 -2,0 1,9 4,2 3,8 4,0 25 14 31 17 E 1023,6 13 60 0,0
20.02.2018 16:00:00 2,9 -1,8 3,3 5,3 3,7 4,0 21 11 27 15 E 1023,5 12 60 0,0
20.02.2018 15:00:00 3,0 -1,1 3,9 5,9 3,5 4,0 22 12 27 15 E 1023,3 5 60 0,0
20.02.2018 14:00:00 3,1 0,1 4,4 5,8 3,1 4,0 20 11 24 13 E 1023,1 4,6 60 0,0
20.02.2018 13:00:00 3,0 0,2 4,1 5,2 2,8 4,0 21 11 32 17 E 1023,0 4,6 60 0,0
20.02.2018 12:00:00 3,0 0,6 4,2 4,1 2,5 4,0 23 13 35 19 ESE 1022,6 4,5 57 0,0
20.02.2018 11:00:00 2,6 0,7 3,2 2,8 2,4 4,0 27 14 32 17 E 1022,3 3,8 2 0,0
20.02.2018 10:00:00 2,3 1,3 2,3 2,4 2,4 4,0 23 12 27 14 E 1022,0 2,6 31 0,0
20.02.2018 09:00:00 2,4 1,3 2,1 2,1 2,4 4,0 19 11 25 13 E 1021,7 3,0 18 0,0
20.02.2018 08:00:00 2,5 1,7 1,9 1,8 2,4 4,0 18 10 23 13 ESE 1021,3 2,0 0 0,0
20.02.2018 07:00:00 2,5 1,5 1,9 1,9 2,5 4,0 17 9 22 12 E 1020,9 2,2 0 0,0
20.02.2018 06:00:00 2,5 1,9 1,9 1,9 2,5 4,0 15 8 18 10 E 1020,8 1,2 0 0,0
20.02.2018 05:00:00 2,5 2,0 1,8 1,9 2,6 4,0 14 7 16 9 E 1020,6 1,1 0 0,0
20.02.2018 04:00:00 2,3 1,6 1,4 2,1 2,6 4,0 8 4 10 6 ESE 1020,4 1,5 0 0,0
20.02.2018 03:00:00 2,5 1,7 1,4 2,1 2,7 4,0 5 3 7 4 ESE 1020,4 1,9 0 0,0
20.02.2018 02:00:00 1,7 1,6 1,0 2,3 2,8 4,0 3 2 5 3 NW 1020,3 0,3 0 0,1
20.02.2018 01:00:00 2,2 2,1 1,5 2,5 2,8 4,0 3 2 8 4 ENE 1020,1 0,7 0 0,2
20.02.2018 00:00:00 2,6 2,3 2,0 2,6 2,9 4,0 8 4 9 5 ENE 1020,0 1,1 0 0,5
19.02.2018 23:00:00 2,6 2,3 2,1 2,7 2,9 4,0 8 5 18 10 ENE 1019,8 1,3 0 1,0
19.02.2018 22:00:00 2,6 2,2 2,2 2,8 3,0 4,0 14 7 16 9 ENE 1019,8 0,9 0 0,8
19.02.2018 21:00:00 2,7 2,3 2,2 3,0 3,1 4,0 8 4 11 6 ENE 1019,8 0,9 0 0,2
19.02.2018 20:00:00 2,5 1,8 1,9 3,2 3,2 4,0 2 1 4 2 ENE 1019,6 1,2 0 0,2
19.02.2018 19:00:00 2,8 1,5 2,2 3,4 3,2 4,0 3 1 10 5 SSE 1019,6 2,5 0 0,0
19.02.2018 18:00:00 2,9 1,6 2,4 3,7 3,3 4,0 8 5 13 7 SSE 1019,5 2,5 0 0,0
19.02.2018 17:00:00 2,9 1,6 2,7 4,4 3,3 4,0 8 4 13 7 SE 1019,5 2,3 0 0,0
19.02.2018 16:00:00 3,1 1,6 3,2 5,2 3,1 4,0 11 6 14 8 SE 1019,3 2,8 0 0,0
19.02.2018 15:00:00 3,5 1,7 4,2 6,0 2,7 4,0 10 5 12 7 SE 1019,6 2,9 16 0,0
19.02.2018 14:00:00 4,3 1,1 6,1 6,2 2,2 4,0 10 6 15 8 SSE 1019,7 3,8 60 0,0
19.02.2018 13:00:00 5,1 1,1 5,8 5,2 1,7 4,0 8 4 13 7 SW 1019,8 4,3 60 0,0
19.02.2018 12:00:00 3,7 0,0 5,0 3,2 1,3 4,0 6 3 14 8 WSW 1020,3 4,4 60 0,0
19.02.2018 11:00:00 2,4 -0,5 3,3 0,7 1,2 3,9 7 4 10 6 S 1020,4 4,4 19 0,0
19.02.2018 10:00:00 1,4 -0,9 1,2 0,3 1,3 3,9 8 4 12 6 S 1020,3 4,6 0 0,0
19.02.2018 09:00:00 0,7 -1,4 0,3 0,3 1,3 3,9 8 4 10 5 S 1020,6 4,7 0 0,0
19.02.2018 08:00:00 0,6 -1,5 0,0 0,3 1,3 3,9 8 4 13 7 SSW 1020,7 4,9 0 0,0
19.02.2018 07:00:00 0,4 -1,6 -0,4 0,3 1,4 3,9 8 4 11 6 SSW 1020,6 5 0 0,0
19.02.2018 06:00:00 0,4 -1,7 -0,6 0,3 1,4 3,9 6 3 9 5 SSW 1020,7 6 0 0,0
19.02.2018 05:00:00 0,5 -1,9 -0,9 0,3 1,5 3,9 7 4 10 6 SSW 1021,1 6 0 0,0
19.02.2018 04:00:00 0,6 -1,6 -0,4 0,4 1,5 3,9 8 4 9 5 SSW 1021,4 6 0 0,0
19.02.2018 03:00:00 0,6 -1,8 -1,3 0,4 1,6 3,9 5 3 10 5 SW 1021,8 8 0 0,0
19.02.2018 02:00:00 0,8 -1,7 -0,4 0,4 1,7 3,9 9 5 12 7 SSW 1022,2 9 0 0,0
19.02.2018 01:00:00 0,9 -1,9 -0,3 0,2 1,8 3,9 8 5 17 9 SSW 1022,8 12 0 0,0
19.02.2018 00:00:00 1,2 -2,1 -0,5 0,5 1,9 3,9 9 5 13 7 SSW 1023,2 14 0 0,0
18.02.2018 23:00:00 1,4 -1,9 -0,4 0,7 2,1 3,9 6 3 12 7 S 1023,7 14 0 0,0
18.02.2018 22:00:00 1,7 -1,9 0,3 0,9 2,2 3,9 8 4 12 6 S 1023,9 17 0 0,0
18.02.2018 21:00:00 1,8 -1,6 0,5 1,1 2,4 3,9 8 4 10 6 S 1024,3 12 0 0,0
18.02.2018 20:00:00 2,1 -1,5 0,7 1,3 2,6 3,9 9 5 11 6 S 1024,6 18 0 0,0
18.02.2018 19:00:00 2,1 -1,7 0,0 1,6 2,8 3,9 9 5 13 7 S 1025,1 21 0 0,0
18.02.2018 18:00:00 2,3 -1,7 0,1 2,5 2,9 3,9 9 5 11 6 S 1025,3 22 0 0,0
18.02.2018 17:00:00 3,2 -1,6 1,4 3,5 2,9 3,9 6 3 23 12 S 1025,6 22 6 0,0
18.02.2018 16:00:00 4,4 -1,5 4,2 4,2 2,7 3,9 12 6 21 12 S 1025,9 25 2 0,0
18.02.2018 15:00:00 4,2 -1,7 4,2 4,6 2,4 3,9 16 9 24 13 SSW 1026,2 30 1 0,0
18.02.2018 14:00:00 4,5 -1,7 5,0 4,9 2,0 3,9 16 8 30 16 S 1026,5 28 28 0,0
18.02.2018 13:00:00 4,2 -2,0 5,1 3,9 1,6 3,9 21 11 27 15 SSW 1027,2 17 39 0,0
18.02.2018 12:00:00 3,5 -2,0 4,3 2,3 1,4 3,9 16 9 31 17 SSW 1027,8 22 34 0,0
18.02.2018 11:00:00 2,5 -2,0 2,7 0,4 1,4 3,9 14 8 23 13 SSW 1027,8 14 39 0,0
18.02.2018 10:00:00 1,4 -1,5 1,3 0,3 1,5 3,8 10 5 18 10 SSW 1027,8 9 12 0,0
18.02.2018 09:00:00 0,6 -2,0 -0,1 0,4 1,6 3,8 9 5 17 9 S 1027,7 15 0 0,0
18.02.2018 08:00:00 0,4 -3,0 -0,5 0,4 1,7 3,8 10 6 18 10 S 1027,6 22 0 0,0
18.02.2018 07:00:00 0,4 -3,1 -1,2 0,4 1,8 3,8 10 5 15 8 S 1027,4 22 0 0,0
18.02.2018 06:00:00 1,1 -2,5 -0,9 0,5 1,9 3,8 10 6 15 8 S 1027,3 23 0 0,0
18.02.2018 05:00:00 1,3 -1,6 -0,5 0,6 2,0 3,8 9 5 11 6 S 1027,1 23 0 0,0
18.02.2018 04:00:00 1,0 -3,2 -2,2 0,6 2,2 3,8 8 5 11 6 SSE 1027,3 27 0 0,0
18.02.2018 03:00:00 2,3 -2,9 0,0 1,2 2,3 3,8 7 4 14 7 S 1027,3 26 0 0,0
18.02.2018 02:00:00 2,5 -1,5 1,6 1,7 2,4 3,8 9 5 15 8 SSW 1027,3 22 0 0,0
18.02.2018 01:00:00 3,1 -2,4 1,7 1,8 2,5 3,8 5 3 22 12 SSW 1027,2 32 0 0,0
18.02.2018 00:00:00 2,9 -2,3 1,8 1,9 2,6 3,8 7 4 12 7 WSW 1027,2 34 0 0,0
17.02.2018 23:00:00 2,3 -0,6 1,4 2,1 2,6 3,8 7 4 10 5 SSW 1026,9 21 0 0,0
17.02.2018 22:00:00 2,7 0,0 1,3 2,2 2,7 3,8 6 3 8 4 SW 1026,5 17 0 0,0
17.02.2018 21:00:00 3,6 -1,8 2,1 2,4 2,9 3,8 6 3 11 6 SSW 1026,2 48 0 0,0
17.02.2018 20:00:00 3,1 -0,6 1,9 2,7 3,0 3,8 6 4 9 5 S 1025,9 27 0 0,0
17.02.2018 19:00:00 3,2 -0,9 2,2 3,1 3,1 3,8 8 4 9 5 S 1025,7 29 0 0,0
17.02.2018 18:00:00 3,3 -0,5 2,6 3,6 3,1 3,8 6 3 9 5 SSE 1025,4 29 0 0,0
17.02.2018 17:00:00 3,9 -0,7 2,9 4,2 3,0 3,8 4 2 6 3 SE 1025,2 30 0 0,0
17.02.2018 16:00:00 4,3 0,0 4,2 4,6 2,9 3,8 3 1 9 5 SSE 1024,9 33 0 0,0
17.02.2018 15:00:00 4,6 -0,1 4,8 4,8 2,7 3,8 6 3 9 5 ENE 1024,7 43 0 0,0
17.02.2018 14:00:00 5,1 -2,2 5,6 4,9 2,3 3,8 6 4 13 7 NNW 1024,8 62 0 0,0
17.02.2018 13:00:00 4,4 2,1 5,5 4,3 2,0 3,8 7 4 11 6 WNW 1024,8 12 0 0,0
17.02.2018 12:00:00 3,2 2,6 4,0 3,3 1,8 3,8 8 4 16 8 WSW 1024,8 5 0 0,0
17.02.2018 11:00:00 2,6 2,1 2,7 2,4 1,6 3,8 14 8 19 10 WSW 1024,8 6 0 0,0
17.02.2018 10:00:00 2,2 1,4 2,3 1,6 1,5 3,8 9 5 12 6 WSW 1024,6 8 0 0,0
17.02.2018 09:00:00 1,3 1,0 1,1 0,9 1,6 3,8 8 5 13 7 WSW 1024,6 6 0 0,0
17.02.2018 08:00:00 0,9 0,7 0,2 0,9 1,6 3,8 10 6 16 8 WSW 1024,5 4,3 0 0,0
17.02.2018 07:00:00 1,3 1,2 0,8 1,2 1,7 3,8 10 5 22 12 WSW 1024,5 3,8 0 0,0
17.02.2018 06:00:00 1,6 1,2 1,1 1,2 1,7 3,8 11 6 15 8 WSW 1024,7 8 0 0,0
17.02.2018 05:00:00 2,1 1,6 1,3 1,2 1,8 3,8 11 6 16 9 WSW 1024,5 10 0 0,0
17.02.2018 04:00:00 2,1 1,9 1,3 1,4 1,8 3,8 10 6 20 11 WSW 1024,7 6 0 0,0
17.02.2018 03:00:00 2,5 2,0 1,8 1,6 1,9 3,8 15 8 23 12 W 1024,9 9 0 0,0
17.02.2018 02:00:00 2,8 2,2 2,1 1,6 1,9 3,8 16 9 26 14 W 1024,8 10 0 0,0
17.02.2018 01:00:00 2,4 1,6 1,2 1,8 1,9 3,8 13 7 21 11 W 1024,5 11 0 0,0
17.02.2018 00:00:00 3,2 2,2 2,6 2,0 2,0 3,8 13 7 18 10 W 1024,3 12 0 0,0
16.02.2018 23:00:00 2,9 2,1 2,3 2,0 2,0 3,8 14 7 22 12 WSW 1024,1 13 0 0,0
16.02.2018 22:00:00 3,2 2,1 2,6 2,2 2,0 3,8 15 8 26 14 WSW 1023,7 13 0 0,0
16.02.2018 21:00:00 3,2 1,9 2,8 2,2 2,0 3,8 19 10 26 14 WSW 1023,3 15 0 0,0

tt = Température de l'air
td = dewpoint
tt 5cm = Température de l'air 5cm
tt -5cm = Température de l'air -5cm
tt -20cm = Température de l'air -20cm
tt -100cm = Température de l'air -100cm
ff = Vitesse du vent
fx = gusts
dd = Direction du vent
ppp = reduced air pressure
vv = visibility
sd = Ensoleillement
rr = Quantités de précipitations

stations d'obs. à proximité